CES2332 ZGSZ-ZLXY

Flight info

Callsign CES2332
Flight time 2h 15m
Altitude 36100
Route K0863S1100 MIPAG1 MIPAG W21 TEPID W24 OSNOV G586 QP B330 SJG/K0857S1130 W102 ZHJ/K0863S1100 W102 ENH/K0856S1130 W102 SHX DCT
Aircraft A320/M-SDE3FGHIRWY/LB1

Departure

Time 2026-05-07 16:49
Airport Shenzhen Bao'an International Airport (ZGSZ)

Arrival

Time 2026-05-07 19:04
Airport Xi'an Xianyang International Airport (ZLXY)
Time Latitude Longitude Altitude Speed Heading
2026-05-07 16:28 22.64158 113.79747 23 ft 0 kts 64°
2026-05-07 16:39 22.64154 113.79739 24 ft 4 kts 62°
2026-05-07 16:39 22.64142 113.79717 25 ft 3 kts 58°
2026-05-07 16:40 22.64131 113.79700 26 ft 2 kts 52°
2026-05-07 16:40 22.64120 113.79686 25 ft 2 kts 42°
2026-05-07 16:40 22.64107 113.79675 28 ft 2 kts 26°
2026-05-07 16:40 22.64092 113.79668 27 ft 2 kts
2026-05-07 16:41 22.64071 113.79668 26 ft 3 kts 343°
2026-05-07 16:41 22.64056 113.79673 26 ft 2 kts 333°
2026-05-07 16:41 22.64046 113.79678 26 ft 2 kts 330°
2026-05-07 16:41 22.64042 113.79680 25 ft 0 kts 330°
2026-05-07 16:42 22.64043 113.79679 25 ft 0 kts 330°
2026-05-07 16:43 22.64047 113.79677 25 ft 1 kts 329°
2026-05-07 16:43 22.64063 113.79662 27 ft 5 kts 311°
2026-05-07 16:43 22.64070 113.79612 24 ft 9 kts 259°
2026-05-07 16:44 22.64039 113.79544 24 ft 8 kts 243°
2026-05-07 16:44 22.64025 113.79504 24 ft 9 kts 262°
2026-05-07 16:44 22.64097 113.79447 24 ft 14 kts 334°
2026-05-07 16:44 22.64171 113.79406 23 ft 22 kts 333°
2026-05-07 16:45 22.64386 113.79287 23 ft 28 kts 333°
2026-05-07 16:45 22.64549 113.79198 23 ft 26 kts 333°
2026-05-07 16:45 22.64716 113.79106 23 ft 27 kts 333°
2026-05-07 16:45 22.64891 113.79010 23 ft 29 kts 333°
2026-05-07 16:46 22.65076 113.78909 23 ft 29 kts 333°
2026-05-07 16:46 22.65195 113.78844 23 ft 28 kts 333°
2026-05-07 16:46 22.65397 113.78733 23 ft 23 kts 333°
2026-05-07 16:46 22.65467 113.78694 23 ft 10 kts 333°
2026-05-07 16:47 22.65493 113.78640 23 ft 9 kts 264°
2026-05-07 16:47 22.65462 113.78571 22 ft 12 kts 241°
2026-05-07 16:47 22.65419 113.78512 22 ft 10 kts 204°
2026-05-07 16:47 22.65376 113.78528 22 ft 5 kts 152°
2026-05-07 16:48 22.65374 113.78529 22 ft 0 kts 153°
2026-05-07 16:48 22.65367 113.78532 23 ft 5 kts 153°
2026-05-07 16:48 22.65173 113.78638 23 ft 65 kts 153°
2026-05-07 16:48 22.64583 113.78961 23 ft 122 kts 153°
2026-05-07 16:49 22.63684 113.79455 29 ft 167 kts 153°
2026-05-07 16:49 22.62603 113.80032 475 ft 173 kts 154°
2026-05-07 16:49 22.61511 113.80551 1139 ft 172 kts 166°
2026-05-07 16:49 22.60280 113.80785 1656 ft 190 kts 171°
2026-05-07 16:50 22.58894 113.80970 1942 ft 213 kts 172°
2026-05-07 16:50 22.57349 113.81173 2424 ft 230 kts 172°
2026-05-07 16:50 22.55744 113.81394 3192 ft 236 kts 172°
2026-05-07 16:50 22.54099 113.81633 3966 ft 240 kts 172°
2026-05-07 16:51 22.52428 113.81884 4765 ft 245 kts 173°
2026-05-07 16:51 22.50740 113.81745 5503 ft 248 kts 200°
2026-05-07 16:51 22.49296 113.80724 6291 ft 250 kts 229°
2026-05-07 16:51 22.48492 113.79069 7069 ft 253 kts 257°
2026-05-07 16:52 22.48294 113.77169 7843 ft 255 kts 264°
2026-05-07 16:52 22.48150 113.75251 8611 ft 257 kts 264°
2026-05-07 16:52 22.48109 113.73310 9363 ft 261 kts 278°
2026-05-07 16:52 22.48775 113.71481 10041 ft 268 kts 304°
2026-05-07 16:53 22.50211 113.70116 10377 ft 291 kts 332°
2026-05-07 16:53 22.52238 113.69481 10537 ft 317 kts 346°
2026-05-07 16:53 22.54477 113.68975 10658 ft 339 kts 346°
2026-05-07 16:53 22.56864 113.68451 10778 ft 360 kts 347°
2026-05-07 16:54 22.59424 113.68254 10950 ft 380 kts
2026-05-07 16:54 22.62066 113.68703 11399 ft 387 kts
2026-05-07 16:54 22.64731 113.69206 11931 ft 391 kts
2026-05-07 16:54 22.67427 113.69697 12480 ft 394 kts
2026-05-07 16:55 22.70113 113.70174 13023 ft 398 kts
2026-05-07 16:55 22.72855 113.70659 13568 ft 401 kts
2026-05-07 16:55 22.75619 113.71150 14071 ft 405 kts
2026-05-07 16:55 22.78411 113.71652 14559 ft 408 kts
2026-05-07 16:56 22.81217 113.72160 15064 ft 411 kts
2026-05-07 16:56 22.84046 113.72677 15561 ft 414 kts
2026-05-07 16:56 22.89769 113.73726 16586 ft 420 kts
2026-05-07 16:57 22.92677 113.74145 17079 ft 422 kts
2026-05-07 16:57 22.95619 113.74180 17581 ft 424 kts 357°
2026-05-07 16:57 22.98576 113.74183 18085 ft 427 kts 357°
2026-05-07 16:57 23.01556 113.74188 18523 ft 430 kts 357°
2026-05-07 16:58 23.04560 113.74194 18938 ft 433 kts 357°
2026-05-07 16:58 23.07579 113.74202 19360 ft 435 kts 357°
2026-05-07 16:58 23.10613 113.74212 19775 ft 437 kts 357°
2026-05-07 16:58 23.13661 113.74225 20179 ft 439 kts 357°
2026-05-07 16:59 23.16729 113.74238 20576 ft 442 kts 357°
2026-05-07 16:59 23.19809 113.74251 20961 ft 444 kts 357°
2026-05-07 16:59 23.22904 113.74203 21335 ft 444 kts 352°
2026-05-07 16:59 23.25931 113.73619 21692 ft 442 kts 341°
2026-05-07 17:00 23.28783 113.72417 22047 ft 439 kts 330°
2026-05-07 17:00 23.31361 113.70657 22386 ft 437 kts 319°
2026-05-07 17:00 23.33573 113.68413 22721 ft 435 kts 309°
2026-05-07 17:00 23.35404 113.65795 23029 ft 435 kts 303°
2026-05-07 17:01 23.37153 113.63149 23344 ft 437 kts 303°
2026-05-07 17:01 23.38936 113.60463 23629 ft 439 kts 304°
2026-05-07 17:01 23.40731 113.57763 23883 ft 441 kts 304°
2026-05-07 17:01 23.42530 113.55057 24147 ft 442 kts 304°
2026-05-07 17:02 23.44336 113.52342 24412 ft 443 kts 304°
2026-05-07 17:02 23.46146 113.49619 24666 ft 444 kts 304°
2026-05-07 17:02 23.47955 113.46893 24918 ft 445 kts 304°
2026-05-07 17:02 23.49771 113.44149 25172 ft 446 kts 304°
2026-05-07 17:03 23.51585 113.41402 25428 ft 447 kts 304°
2026-05-07 17:03 23.53453 113.38684 25712 ft 449 kts 309°
2026-05-07 17:03 23.55635 113.36251 26086 ft 448 kts 314°
2026-05-07 17:03 23.57878 113.33898 26465 ft 447 kts 314°
2026-05-07 17:04 23.60104 113.31551 26855 ft 445 kts 314°
2026-05-07 17:04 23.62324 113.29202 27243 ft 444 kts 314°
2026-05-07 17:04 23.64533 113.26859 27669 ft 442 kts 313°
2026-05-07 17:04 23.66519 113.24330 28086 ft 437 kts 303°
2026-05-07 17:05 23.68078 113.21501 28519 ft 434 kts 295°
2026-05-07 17:05 23.69315 113.18502 28951 ft 432 kts 293°
2026-05-07 17:05 23.70534 113.15505 29393 ft 431 kts 293°
2026-05-07 17:05 23.71750 113.12521 29853 ft 430 kts 293°
2026-05-07 17:06 23.72961 113.09552 30269 ft 428 kts 293°
2026-05-07 17:06 23.74166 113.06595 30662 ft 426 kts 293°
2026-05-07 17:06 23.75413 113.03665 31063 ft 425 kts 298°
2026-05-07 17:06 23.77066 113.00996 31468 ft 425 kts 308°
2026-05-07 17:07 23.79174 112.98733 31878 ft 427 kts 319°
2026-05-07 17:07 23.81636 112.96985 32297 ft 429 kts 330°
2026-05-07 17:07 23.84419 112.95781 32745 ft 432 kts 339°
2026-05-07 17:07 23.87333 112.94831 33179 ft 431 kts 339°
2026-05-07 17:08 23.90160 112.93904 33634 ft 429 kts 339°
2026-05-07 17:08 23.93045 112.92954 34129 ft 427 kts 339°
2026-05-07 17:08 23.95888 112.92013 34547 ft 426 kts 339°
2026-05-07 17:08 23.98719 112.91070 34916 ft 425 kts 339°
2026-05-07 17:09 24.01540 112.90126 35224 ft 424 kts 338°
2026-05-07 17:09 24.04323 112.89194 35518 ft 423 kts 338°
2026-05-07 17:09 24.07137 112.88253 35814 ft 423 kts 338°
2026-05-07 17:09 24.09950 112.87315 36020 ft 423 kts 338°
2026-05-07 17:10 24.15642 112.85413 36076 ft 434 kts 338°
2026-05-07 17:10 24.21475 112.83467 36083 ft 441 kts 339°
2026-05-07 17:11 24.27353 112.81522 36080 ft 442 kts 339°
2026-05-07 17:11 24.33243 112.79572 36090 ft 442 kts 339°
2026-05-07 17:12 24.39130 112.77614 36092 ft 442 kts 338°
2026-05-07 17:12 24.44637 112.74870 36100 ft 431 kts 319°
2026-05-07 17:13 24.46806 112.72645 36098 ft 425 kts 307°
2026-05-07 17:13 24.48468 112.69984 36099 ft 421 kts 295°
2026-05-07 17:13 24.49556 112.67015 36097 ft 419 kts 284°
2026-05-07 17:13 24.50039 112.63870 36100 ft 419 kts 276°
2026-05-07 17:14 24.50651 112.57510 36096 ft 420 kts 276°
2026-05-07 17:14 24.51261 112.51173 36103 ft 420 kts 276°
2026-05-07 17:15 24.51877 112.44792 36110 ft 421 kts 276°
2026-05-07 17:15 24.52494 112.38402 36114 ft 421 kts 276°
2026-05-07 17:16 24.53109 112.32010 36121 ft 421 kts 276°
2026-05-07 17:16 24.53717 112.25620 36123 ft 421 kts 276°
2026-05-07 17:17 24.54317 112.19225 36129 ft 421 kts 276°
2026-05-07 17:17 24.54924 112.12831 36132 ft 421 kts 276°
2026-05-07 17:18 24.55530 112.06444 36133 ft 420 kts 276°
2026-05-07 17:18 24.56129 112.00064 36130 ft 420 kts 276°
2026-05-07 17:19 24.56721 111.93680 36133 ft 420 kts 276°
2026-05-07 17:19 24.57313 111.87302 36131 ft 420 kts 276°
2026-05-07 17:20 24.57905 111.80924 36133 ft 420 kts 276°
2026-05-07 17:20 24.58501 111.74548 36132 ft 419 kts 276°
2026-05-07 17:21 24.59088 111.68211 36132 ft 420 kts 276°
2026-05-07 17:21 24.59673 111.61825 36139 ft 420 kts 276°
2026-05-07 17:22 24.60255 111.55450 36139 ft 420 kts 275°
2026-05-07 17:22 24.60825 111.49066 36140 ft 419 kts 276°
2026-05-07 17:23 24.61401 111.42692 36141 ft 419 kts 276°
2026-05-07 17:23 24.61973 111.36317 36138 ft 419 kts 276°
2026-05-07 17:24 24.62535 111.29941 36138 ft 419 kts 276°
2026-05-07 17:24 24.63097 111.23562 36141 ft 419 kts 276°
2026-05-07 17:25 24.63662 111.17200 36134 ft 418 kts 276°
2026-05-07 17:25 24.64224 111.10838 36135 ft 418 kts 276°
2026-05-07 17:26 24.64772 111.04518 36133 ft 418 kts 276°
2026-05-07 17:26 24.65314 110.98164 36128 ft 418 kts 275°
2026-05-07 17:27 24.65860 110.91806 36122 ft 417 kts 276°
2026-05-07 17:27 24.66409 110.85449 36122 ft 418 kts 276°
2026-05-07 17:28 24.67540 110.79209 36118 ft 418 kts 291°
2026-05-07 17:28 24.70660 110.73819 36113 ft 424 kts 311°
2026-05-07 17:29 24.74931 110.69321 36113 ft 425 kts 313°
2026-05-07 17:29 24.79211 110.64820 36112 ft 426 kts 313°
2026-05-07 17:30 24.83494 110.60305 36119 ft 426 kts 313°
2026-05-07 17:30 24.87754 110.55816 36123 ft 427 kts 313°
2026-05-07 17:31 24.92042 110.51293 36131 ft 427 kts 313°
2026-05-07 17:31 24.96357 110.46735 36135 ft 427 kts 313°
2026-05-07 17:32 25.00640 110.42190 36145 ft 427 kts 313°
2026-05-07 17:32 25.04207 110.38419 36145 ft 427 kts 313°
2026-05-07 17:33 25.09202 110.33151 36159 ft 427 kts 313°
2026-05-07 17:33 25.13491 110.28620 36164 ft 427 kts 313°
2026-05-07 17:34 25.17771 110.24088 36168 ft 426 kts 313°
2026-05-07 17:34 25.22050 110.19556 36168 ft 426 kts 313°
2026-05-07 17:35 25.26336 110.15050 36170 ft 426 kts 313°
2026-05-07 17:35 25.29934 110.11275 36173 ft 425 kts 313°
2026-05-07 17:36 25.33962 110.07031 36174 ft 425 kts 313°
2026-05-07 17:36 25.38235 110.02512 36173 ft 425 kts 313°
2026-05-07 17:37 25.41786 109.98751 36174 ft 425 kts 313°
2026-05-07 17:37 25.46057 109.94233 36177 ft 425 kts 313°
2026-05-07 17:38 25.50338 109.89719 36180 ft 425 kts 313°
2026-05-07 17:38 25.54611 109.85188 36185 ft 425 kts 312°
2026-05-07 17:39 25.58879 109.80651 36187 ft 425 kts 313°
2026-05-07 17:39 25.63147 109.76120 36185 ft 425 kts 312°
2026-05-07 17:40 25.67419 109.71581 36190 ft 425 kts 312°
2026-05-07 17:40 25.71689 109.67035 36201 ft 425 kts 312°
2026-05-07 17:41 25.76366 109.62995 36204 ft 433 kts 328°
2026-05-07 17:41 25.79189 109.61761 36203 ft 441 kts 340°
2026-05-07 17:41 25.82241 109.61194 36201 ft 450 kts 352°
2026-05-07 17:42 25.88562 109.61477 36202 ft 456 kts 357°
2026-05-07 17:42 25.94897 109.61864 36207 ft 456 kts 357°
2026-05-07 17:43 26.01201 109.62241 36209 ft 457 kts 356°
2026-05-07 17:43 26.07545 109.62613 36213 ft 457 kts 356°
2026-05-07 17:44 26.13899 109.62981 36224 ft 458 kts 356°
2026-05-07 17:44 26.20264 109.63351 36231 ft 458 kts 356°
2026-05-07 17:45 26.26633 109.63726 36234 ft 458 kts 356°
2026-05-07 17:45 26.33002 109.64105 36241 ft 459 kts 356°
2026-05-07 17:46 26.39376 109.64488 36243 ft 459 kts 356°
2026-05-07 17:46 26.45759 109.64863 36247 ft 459 kts 356°
2026-05-07 17:47 26.52140 109.65233 36248 ft 460 kts 356°
2026-05-07 17:47 26.58534 109.65610 36248 ft 460 kts 356°
2026-05-07 17:48 26.64927 109.65984 36244 ft 461 kts 356°
2026-05-07 17:48 26.71290 109.66358 36234 ft 462 kts 356°
2026-05-07 17:49 26.77718 109.66741 36237 ft 462 kts 356°
2026-05-07 17:49 26.84142 109.67120 36235 ft 463 kts 356°
2026-05-07 17:50 26.90583 109.67500 36238 ft 463 kts 356°
2026-05-07 17:50 26.97023 109.67881 36244 ft 464 kts 355°
2026-05-07 17:51 27.03469 109.68258 36245 ft 464 kts 355°
2026-05-07 17:51 27.09906 109.68634 36250 ft 464 kts 355°
2026-05-07 17:52 27.16343 109.69025 36258 ft 464 kts 355°
2026-05-07 17:52 27.22798 109.69414 36262 ft 463 kts 355°
2026-05-07 17:53 27.29237 109.69791 36269 ft 463 kts 355°
2026-05-07 17:53 27.35671 109.70171 36270 ft 463 kts 355°
2026-05-07 17:54 27.42107 109.70551 36272 ft 463 kts 355°
2026-05-07 17:54 27.48532 109.70790 36271 ft 459 kts 352°
2026-05-07 17:55 27.54891 109.70552 36269 ft 456 kts 349°
2026-05-07 17:55 27.61227 109.70163 36273 ft 456 kts 349°
2026-05-07 17:56 27.67573 109.69867 36274 ft 457 kts 350°
2026-05-07 17:56 27.73937 109.69649 36282 ft 458 kts 350°
2026-05-07 17:57 27.79228 109.69468 36281 ft 458 kts 350°
2026-05-07 17:57 27.86664 109.69196 36283 ft 458 kts 350°
2026-05-07 17:58 27.93029 109.68954 36286 ft 457 kts 350°
2026-05-07 17:58 27.99345 109.68712 36291 ft 457 kts 350°
2026-05-07 17:59 28.05708 109.68471 36288 ft 457 kts 350°
2026-05-07 17:59 28.12069 109.68233 36294 ft 457 kts 349°
2026-05-07 18:00 28.18429 109.67998 36293 ft 457 kts 349°
2026-05-07 18:00 28.24789 109.67766 36294 ft 457 kts 349°
2026-05-07 18:01 28.31142 109.67530 36306 ft 457 kts 349°
2026-05-07 18:01 28.37495 109.67293 36299 ft 457 kts 349°
2026-05-07 18:02 28.47023 109.66929 36300 ft 456 kts 349°
2026-05-07 18:03 28.53374 109.66687 36302 ft 457 kts 349°
2026-05-07 18:03 28.59723 109.66459 36302 ft 456 kts 349°
2026-05-07 18:04 28.66076 109.66222 36301 ft 457 kts 349°
2026-05-07 18:04 28.72385 109.65987 36307 ft 457 kts 349°
2026-05-07 18:05 28.78735 109.65746 36310 ft 457 kts 349°
2026-05-07 18:05 28.85083 109.65511 36304 ft 457 kts 349°
2026-05-07 18:06 28.91440 109.65283 36309 ft 457 kts 349°
2026-05-07 18:06 28.97790 109.65044 36315 ft 456 kts 349°
2026-05-07 18:07 29.04138 109.64798 36310 ft 456 kts 349°
2026-05-07 18:07 29.10484 109.64553 36316 ft 456 kts 349°
2026-05-07 18:08 29.16833 109.64310 36319 ft 457 kts 348°
2026-05-07 18:08 29.23180 109.64070 36307 ft 456 kts 349°
2026-05-07 18:09 29.29529 109.63826 36313 ft 456 kts 348°
2026-05-07 18:09 29.35877 109.63580 36312 ft 456 kts 348°
2026-05-07 18:10 29.42227 109.63331 36320 ft 456 kts 348°
2026-05-07 18:10 29.48573 109.63085 36321 ft 456 kts 348°
2026-05-07 18:11 29.54918 109.62843 36323 ft 456 kts 348°
2026-05-07 18:11 29.61264 109.62607 36331 ft 456 kts 348°
2026-05-07 18:12 29.67615 109.62373 36326 ft 456 kts 348°
2026-05-07 18:12 29.73955 109.62138 36333 ft 456 kts 348°
2026-05-07 18:13 29.80256 109.61895 36332 ft 455 kts 349°
2026-05-07 18:13 29.86586 109.61659 36337 ft 456 kts 348°
2026-05-07 18:14 29.92935 109.61424 36339 ft 456 kts 348°
2026-05-07 18:14 29.99274 109.61178 36335 ft 456 kts 348°
2026-05-07 18:15 30.05609 109.60934 36328 ft 456 kts 348°
2026-05-07 18:15 30.11952 109.60699 36342 ft 457 kts 348°
2026-05-07 18:16 30.18295 109.60452 36334 ft 456 kts 348°
2026-05-07 18:16 30.24631 109.60206 36328 ft 456 kts 347°
2026-05-07 18:17 30.31006 109.60172 36344 ft 465 kts 354°
2026-05-07 18:17 30.37461 109.60746 36343 ft 465 kts 354°
2026-05-07 18:18 30.43920 109.61334 36346 ft 466 kts 354°
2026-05-07 18:18 30.50332 109.61927 36347 ft 465 kts 354°
2026-05-07 18:19 30.56832 109.62518 36345 ft 465 kts 354°
2026-05-07 18:19 30.63240 109.63104 36342 ft 465 kts 354°
2026-05-07 18:20 30.69699 109.63701 36339 ft 465 kts 354°
2026-05-07 18:20 30.76159 109.64291 36343 ft 466 kts 354°
2026-05-07 18:21 30.82623 109.64876 36345 ft 466 kts 354°
2026-05-07 18:21 30.89091 109.65472 36343 ft 466 kts 354°
2026-05-07 18:22 30.95554 109.66070 36338 ft 466 kts 354°
2026-05-07 18:22 31.02018 109.66671 36338 ft 466 kts 355°
2026-05-07 18:23 31.08445 109.67265 36337 ft 466 kts 354°
2026-05-07 18:23 31.14914 109.67864 36337 ft 467 kts 355°
2026-05-07 18:24 31.21388 109.68466 36340 ft 466 kts 354°
2026-05-07 18:24 31.27861 109.69062 36341 ft 467 kts 354°
2026-05-07 18:25 31.34333 109.69660 36344 ft 466 kts 355°
2026-05-07 18:25 31.40798 109.70251 36347 ft 466 kts 355°
2026-05-07 18:26 31.47262 109.70840 36346 ft 466 kts 355°
2026-05-07 18:26 31.53724 109.71435 36347 ft 465 kts 355°
2026-05-07 18:27 31.60177 109.72035 36349 ft 465 kts 355°
2026-05-07 18:27 31.65548 109.72536 36353 ft 465 kts 355°
2026-05-07 18:28 31.73046 109.73232 36347 ft 465 kts 355°
2026-05-07 18:28 31.79493 109.73826 36347 ft 464 kts 355°
2026-05-07 18:29 31.84893 109.74315 36349 ft 464 kts 355°
2026-05-07 18:29 31.91288 109.74904 36345 ft 464 kts 355°
2026-05-07 18:30 31.98815 109.75611 36339 ft 464 kts 355°
2026-05-07 18:30 32.04161 109.76118 36338 ft 464 kts 355°
2026-05-07 18:31 32.10595 109.76718 36335 ft 464 kts 355°
2026-05-07 18:31 32.17026 109.77307 36334 ft 464 kts 355°
2026-05-07 18:32 32.23460 109.77907 36334 ft 464 kts 355°
2026-05-07 18:32 32.29892 109.78507 36330 ft 463 kts 355°
2026-05-07 18:33 32.36315 109.79100 36331 ft 463 kts 355°
2026-05-07 18:33 32.42729 109.79686 36331 ft 462 kts 355°
2026-05-07 18:34 32.49096 109.80272 36331 ft 462 kts 355°
2026-05-07 18:34 32.55546 109.80874 36324 ft 462 kts 355°
2026-05-07 18:35 32.61907 109.81466 36326 ft 461 kts 355°
2026-05-07 18:35 32.68306 109.82069 36327 ft 461 kts 355°
2026-05-07 18:36 32.74698 109.82668 36335 ft 461 kts 355°
2026-05-07 18:36 32.81090 109.83268 36333 ft 460 kts 355°
2026-05-07 18:37 32.87473 109.83858 36333 ft 459 kts 355°
2026-05-07 18:37 32.93843 109.84452 36340 ft 459 kts 355°
2026-05-07 18:38 33.00204 109.85050 36342 ft 459 kts 355°
2026-05-07 18:38 33.06565 109.85653 36346 ft 458 kts 355°
2026-05-07 18:39 33.12911 109.86247 36351 ft 457 kts 355°
2026-05-07 18:39 33.18067 109.86732 36352 ft 457 kts 355°
2026-05-07 18:40 33.24260 109.87334 36357 ft 456 kts 355°
2026-05-07 18:40 33.30591 109.87921 36359 ft 456 kts 355°
2026-05-07 18:41 33.36877 109.88508 36360 ft 455 kts 355°
2026-05-07 18:41 33.43216 109.89113 36361 ft 455 kts 355°
2026-05-07 18:42 33.49516 109.89709 36365 ft 454 kts 355°
2026-05-07 18:42 33.55776 109.90305 36363 ft 454 kts 355°
2026-05-07 18:43 33.62074 109.90905 36363 ft 454 kts 356°
2026-05-07 18:43 33.68362 109.91502 36368 ft 454 kts 355°
2026-05-07 18:44 33.74658 109.92096 36365 ft 454 kts 355°
2026-05-07 18:44 33.77802 109.92383 36169 ft 450 kts 353°
2026-05-07 18:44 33.80859 109.92166 35453 ft 434 kts 340°
2026-05-07 18:44 33.83706 109.91160 34757 ft 422 kts 329°
2026-05-07 18:45 33.86256 109.89492 33973 ft 414 kts 318°
2026-05-07 18:45 33.88432 109.87269 33099 ft 408 kts 308°
2026-05-07 18:45 33.90166 109.84589 32224 ft 405 kts 297°
2026-05-07 18:45 33.91415 109.81550 31294 ft 405 kts 289°
2026-05-07 18:46 33.92440 109.78381 30309 ft 409 kts 289°
2026-05-07 18:46 33.93483 109.75166 29179 ft 414 kts 289°
2026-05-07 18:46 33.94541 109.71919 27960 ft 420 kts 289°
2026-05-07 18:46 33.95615 109.68618 26648 ft 427 kts 290°
2026-05-07 18:47 33.96709 109.65254 25334 ft 435 kts 290°
2026-05-07 18:47 33.97821 109.61821 24213 ft 441 kts 290°
2026-05-07 18:47 33.98912 109.58455 24024 ft 422 kts 290°
2026-05-07 18:47 33.99965 109.55200 23529 ft 413 kts 290°
2026-05-07 18:48 34.00988 109.52032 22835 ft 409 kts 290°
2026-05-07 18:48 34.02016 109.48853 22090 ft 407 kts 290°
2026-05-07 18:48 34.03045 109.45674 21356 ft 406 kts 291°
2026-05-07 18:48 34.04073 109.42494 20660 ft 405 kts 291°
2026-05-07 18:49 34.05093 109.39330 20008 ft 405 kts 291°
2026-05-07 18:49 34.06109 109.36171 19414 ft 404 kts 291°
2026-05-07 18:49 34.07125 109.33010 18855 ft 404 kts 291°
2026-05-07 18:49 34.08137 109.29851 18245 ft 403 kts 291°
2026-05-07 18:50 34.09146 109.26708 17642 ft 401 kts 291°
2026-05-07 18:50 34.10147 109.23584 17078 ft 398 kts 291°
2026-05-07 18:50 34.10806 109.21527 16720 ft 395 kts 291°
2026-05-07 18:50 34.10913 109.21190 16658 ft 395 kts 291°
2026-05-07 18:51 34.11862 109.18214 16115 ft 391 kts 291°
2026-05-07 18:51 34.12834 109.15167 15553 ft 387 kts 291°
2026-05-07 18:51 34.13797 109.12147 15000 ft 384 kts 291°
2026-05-07 18:51 34.14752 109.09149 14445 ft 380 kts 291°
2026-05-07 18:52 34.15698 109.06183 13871 ft 377 kts 291°
2026-05-07 18:52 34.16636 109.03241 13226 ft 374 kts 291°
2026-05-07 18:52 34.17565 109.00319 12589 ft 372 kts 291°
2026-05-07 18:52 34.18489 108.97412 11943 ft 370 kts 291°
2026-05-07 18:53 34.19407 108.94518 11323 ft 368 kts 291°
2026-05-07 18:53 34.20318 108.91636 10719 ft 366 kts 291°
2026-05-07 18:53 34.21210 108.88818 10565 ft 352 kts 291°
2026-05-07 18:53 34.22161 108.86208 10443 ft 338 kts 301°
2026-05-07 18:54 34.23582 108.84028 10320 ft 324 kts 317°
2026-05-07 18:54 34.25192 108.82199 10203 ft 313 kts 318°
2026-05-07 18:54 34.26748 108.80435 10070 ft 299 kts 318°
2026-05-07 18:54 34.28144 108.78691 9941 ft 280 kts 304°
2026-05-07 18:55 34.28817 108.76571 9728 ft 268 kts 275°
2026-05-07 18:55 34.28554 108.74385 9248 ft 265 kts 244°
2026-05-07 18:55 34.27506 108.72589 8769 ft 262 kts 227°
2026-05-07 18:55 34.26301 108.70946 8310 ft 261 kts 226°
2026-05-07 18:56 34.25091 108.69305 7879 ft 260 kts 226°
2026-05-07 18:56 34.23896 108.67681 7444 ft 257 kts 226°
2026-05-07 18:56 34.22711 108.66068 7057 ft 255 kts 226°
2026-05-07 18:56 34.21538 108.64472 6650 ft 253 kts 226°
2026-05-07 18:57 34.20387 108.62876 6163 ft 252 kts 232°
2026-05-07 18:57 34.19649 108.60967 5950 ft 251 kts 257°
2026-05-07 18:57 34.19647 108.58899 5809 ft 245 kts 284°
2026-05-07 18:57 34.20348 108.57106 5686 ft 237 kts 309°
2026-05-07 18:58 34.21571 108.55850 5567 ft 228 kts 329°
2026-05-07 18:58 34.22925 108.54913 5420 ft 220 kts 339°
2026-05-07 18:58 34.24378 108.54502 5313 ft 212 kts 359°
2026-05-07 18:58 34.25649 108.54626 5203 ft 206 kts 16°
2026-05-07 18:59 34.26960 108.55267 5076 ft 202 kts 34°
2026-05-07 18:59 34.28014 108.56355 4996 ft 197 kts 50°
2026-05-07 18:59 34.28889 108.57560 4927 ft 185 kts 49°
2026-05-07 18:59 34.29716 108.58692 4902 ft 179 kts 50°
2026-05-07 19:00 34.30519 108.59793 4899 ft 171 kts 51°
2026-05-07 19:00 34.31307 108.60875 4757 ft 172 kts 50°
2026-05-07 19:00 34.32105 108.61972 4562 ft 176 kts 49°
2026-05-07 19:00 34.32913 108.63082 4345 ft 177 kts 50°
2026-05-07 19:01 34.33735 108.64213 4114 ft 181 kts 50°
2026-05-07 19:01 34.34561 108.65348 3895 ft 176 kts 49°
2026-05-07 19:01 34.35325 108.66398 3659 ft 158 kts 50°
2026-05-07 19:01 34.36022 108.67358 3479 ft 148 kts 48°
2026-05-07 19:02 34.36690 108.68278 3278 ft 144 kts 49°
2026-05-07 19:02 34.37348 108.69184 3097 ft 143 kts 49°
2026-05-07 19:02 34.38003 108.70086 2912 ft 143 kts 49°
2026-05-07 19:02 34.38656 108.70986 2722 ft 142 kts 49°
2026-05-07 19:03 34.39310 108.71884 2530 ft 142 kts 49°
2026-05-07 19:03 34.39957 108.72781 2322 ft 141 kts 49°
2026-05-07 19:03 34.40601 108.73670 2108 ft 140 kts 49°
2026-05-07 19:03 34.41242 108.74555 1936 ft 140 kts 48°
2026-05-07 19:04 34.41875 108.75443 1715 ft 139 kts 49°
2026-05-07 19:04 34.42513 108.76320 1527 ft 135 kts 49°
2026-05-07 19:04 34.43047 108.77062 1521 ft 94 kts 48°
2026-05-07 19:04 34.43363 108.77502 1517 ft 45 kts 49°
2026-05-07 19:05 34.43511 108.77691 1520 ft 15 kts 23°
2026-05-07 19:05 34.43619 108.77737 1521 ft 17 kts 17°
2026-05-07 19:05 34.43742 108.77783 1521 ft 19 kts 15°
2026-05-07 19:05 34.43812 108.77819 1521 ft 11 kts 32°
2026-05-07 19:06 34.43871 108.77874 1521 ft 9 kts 29°
2026-05-07 19:06 34.43992 108.77819 1520 ft 12 kts 315°
2026-05-07 19:06 34.44056 108.77740 1522 ft 15 kts 313°
2026-05-07 19:07 34.44124 108.77656 1521 ft 8 kts 315°
2026-05-07 19:07 34.44124 108.77588 1520 ft 10 kts 231°
2026-05-07 19:07 34.44071 108.77517 1517 ft 13 kts 229°
2026-05-07 19:07 34.44009 108.77429 1522 ft 15 kts 229°
2026-05-07 19:08 34.43968 108.77358 1519 ft 9 kts 255°
2026-05-07 19:08 34.43995 108.77282 1521 ft 11 kts 292°
2026-05-07 19:08 34.43982 108.77205 1521 ft 10 kts 269°
2026-05-07 19:08 34.44029 108.77163 1521 ft 9 kts 14°
2026-05-07 19:09 34.44067 108.77210 1521 ft 0 kts 50°